KLEX Airport Diagram

We have created a template for each of the higher traffic airports in the vZID airspace. They include KCMH, KCRW, KCVG, KDAY, KIND, KLEX and KSDF. You wil find usefull information including the airport diagram, weather, and specific airport procedures.

KLEX Weather

[Source: ADDS]
METAR
KLEX 181354Z 04004KT 5SM BR CLR M02/M04 A3024 RMK AO2 SLP246 T10171039 =
KLEX 181120Z 1812/1912 07005KT P6SM SCT250 FM190000 13005KT P6SM BKN250
TAF
KLEX 181120Z 1812/1912 07005KT P6SM SCT250 FM190000 13005KT P6SM BKN250 =

KLEX Operations

Calm wind runway at KLEX is Runway 22, up to and including 10kts.

Default scenery shows Runway 8/26, which crosses Runway 22. When taxiing to Runway 22, clearance to cross Runway 26 not required.

Updated scenery available at www.flightsim.com.

 

JSN Epic template designed by JoomlaShine.com